QPF
0.08 0.10 0.13 0.15 0.16 0.16 0.15 0.14 0.14 0.14 0.13 0.14 0.13 0.13 0.13 0.15 0.17 0.18 0.17 0.16 0.18 0.17 0.16 0.14 0.14 0.15 0.15 0.16 0.15 0.13 0.11 0.10 0.09 0.07 0.06 0.04 0.04 0.04 0.04 0.04 0.04 0.05 0.04
0.04 0.06 0.10 0.08 0.07 0.09 0.10 0.12 0.11 0.12 0.12 0.11 0.11 0.13 0.12 0.11 0.10 0.11 0.12 0.13 0.15 0.15 0.14 0.12 0.10 0.09 0.09 0.11 0.11 0.10 0.09 0.09 0.08 0.08 0.08 0.07 0.06 0.05 0.06 0.07 0.08 0.08 0.09
0.03 0.05 0.06 0.06 0.05 0.06 0.07 0.08 0.08 0.08 0.10 0.11 0.12 0.15 0.14 0.11 0.09 0.09 0.08 0.09 0.10 0.12 0.12 0.10 0.09 0.09 0.08 0.08 0.07 0.08 0.09 0.09 0.09 0.10 0.11 0.11 0.09 0.07 0.08 0.09 0.11 0.14 0.10
0.02 0.03 0.03 0.04 0.04 0.05 0.05 0.05 0.04 0.05 0.06 0.08 0.09 0.11 0.12 0.10 0.09 0.10 0.07 0.06 0.06 0.07 0.09 0.09 0.10 0.10 0.09 0.08 0.08 0.10 0.11 0.10 0.09 0.10 0.11 0.11 0.10 0.09 0.10 0.11 0.14 0.15 0.12
0.01 0.02 0.02 0.02 0.03 0.03 0.04 0.04 0.03 0.04 0.05 0.07 0.06 0.08 0.07 0.06 0.06 0.08 0.08 0.05 0.04 0.06 0.07 0.08 0.08 0.08 0.06 0.06 0.07 0.10 0.10 0.11 0.11 0.12 0.12 0.11 0.09 0.08 0.09 0.11 0.11 0.13 0.14
0.00 0.01 0.01 0.02 0.03 0.02 0.02 0.03 0.03 0.03 0.04 0.04 0.04 0.06 0.07 0.05 0.05 0.07 0.08 0.06 0.06 0.06 0.07 0.08 0.08 0.06 0.04 0.03 0.04 0.06 0.08 0.10 0.11 0.10 0.10 0.09 0.08 0.07 0.09 0.11 0.12 0.12 0.10
0.00 0.01 0.01 0.01 0.02 0.02 0.02 0.02 0.02 0.02 0.03 0.04 0.05 0.07 0.07 0.05 0.05 0.06 0.07 0.07 0.07 0.08 0.08 0.11 0.10 0.07 0.06 0.05 0.04 0.04 0.05 0.08 0.10 0.10 0.10 0.08 0.07 0.08 0.09 0.09 0.10 0.11 0.07
0.00 0.00 0.00 0.01 0.01 0.01 0.01 0.01 0.01 0.02 0.02 0.03 0.04 0.05 0.07 0.05 0.04 0.04 0.06 0.06 0.05 0.07 0.09 0.11 0.11 0.11 0.09 0.10 0.09 0.08 0.07 0.05 0.05 0.06 0.05 0.05 0.04 0.05 0.06 0.07 0.07 0.06 0.04
0.00 0.00 0.00 0.00 0.01 0.01 0.01 0.01 0.01 0.01 0.01 0.01 0.02 0.03 0.04 0.03 0.03 0.03 0.05 0.05 0.05 0.06 0.06 0.08 0.10 0.10 0.08 0.10 0.13 0.11 0.07 0.04 0.04 0.05 0.04 0.03 0.04 0.04 0.04 0.04 0.05 0.05 0.04
0.00 0.00 0.00 0.00 0.01 0.00 0.00 0.01 0.01 0.01 0.01 0.02 0.02 0.03 0.03 0.03 0.02 0.03 0.04 0.04 0.05 0.06 0.06 0.07 0.09 0.08 0.06 0.10 0.14 0.12 0.08 0.05 0.03 0.03 0.02 0.02 0.02 0.02 0.03 0.05 0.07 0.08 0.06
0.00 0.00 0.00 0.00 0.00 0.00 0.00 0.00 0.01 0.01 0.01 0.02 0.03 0.03 0.03 0.02 0.02 0.02 0.02 0.03 0.04 0.04 0.07 0.06 0.04 0.04 0.05 0.08 0.11 0.09 0.07 0.06 0.06 0.06 0.05 0.03 0.03 0.02 0.02 0.02 0.03 0.06 0.08
0.00 0.00 0.00 0.00 0.00 0.00 0.00 0.01 0.01 0.01 0.01 0.01 0.01 0.02 0.02 0.03 0.02 0.01 0.02 0.02 0.03 0.03 0.04 0.03 0.02 0.03 0.03 0.04 0.06 0.06 0.05 0.07 0.07 0.06 0.06 0.06 0.03 0.02 0.02 0.01 0.01 0.01 0.01
0.00 0.00 0.00 0.00 0.00 0.00 0.00 0.00 0.00 0.00 0.00 0.00 0.00 0.01 0.02 0.02 0.02 0.01 0.01 0.01 0.01 0.01 0.01 0.02 0.01 0.02 0.03 0.03 0.04 0.05 0.05 0.05 0.06 0.05 0.05 0.04 0.02 0.01 0.01 0.01 0.01 0.00 0.00
0.00 0.00 0.00 0.00 0.00 0.00 0.00 0.00 0.00 0.00 0.00 0.00 0.00 0.01 0.01 0.01 0.01 0.01 0.02 0.01 0.01 0.01 0.01 0.01 0.01 0.01 0.02 0.03 0.03 0.04 0.05 0.04 0.03 0.03 0.03 0.02 0.01 0.01 0.01 0.02 0.02 0.01 0.00
0.00 0.00 0.00 0.00 0.00 0.00 0.00 0.00 0.00 0.00 0.00 0.00 0.00 0.00 0.00 0.00 0.00 0.00 0.01 0.01 0.01 0.01 0.01 0.02 0.02 0.02 0.02 0.03 0.03 0.02 0.02 0.02 0.02 0.02 0.02 0.03 0.02 0.02 0.01 0.02 0.02 0.02 0.01
0.00 0.00 0.00 0.00 0.00 0.00 0.00 0.00 0.00 0.00 0.00 0.00 0.00 0.00 0.00 0.00 0.00 0.00 0.00 0.00 0.00 0.01 0.01 0.02 0.02 0.01 0.01 0.02 0.04 0.02 0.01 0.01 0.02 0.01 0.01 0.01 0.02 0.02 0.01 0.02 0.02 0.02 0.01
0.00 0.00 0.00 0.00 0.00 0.00 0.00 0.00 0.00 0.00 0.00 0.00 0.00 0.00 0.00 0.00 0.00 0.00 0.00 0.00 0.00 0.01 0.01 0.02 0.02 0.02 0.02 0.03 0.03 0.02 0.01 0.01 0.00 0.01 0.00 0.00 0.01 0.01 0.01 0.01 0.02 0.01 0.00
0.00 0.00 0.00 0.00 0.00 0.00 0.00 0.00 0.00 0.00 0.00 0.00 0.00 0.00 0.00 0.00 0.00 0.00 0.00 0.00 0.01 0.02 0.02 0.02 0.02 0.02 0.02 0.02 0.01 0.00 0.00 0.00 0.00 0.00 0.00 0.00 0.00 0.00 0.00 0.00 0.00 0.00 0.00
0.00 0.00 0.00 0.00 0.00 0.00 0.00 0.00 0.00 0.00 0.00 0.00 0.00 0.00 0.00 0.00 0.00 0.00 0.00 0.01 0.01 0.01 0.01 0.01 0.00 0.01 0.01 0.00 0.00 0.00 0.00 0.00 0.00 0.00 0.00 0.00 0.00 0.00 0.00 0.00 0.00 0.00 0.00
0.00 0.00 0.00 0.00 0.00 0.00 0.00 0.00 0.00 0.00 0.00 0.00 0.00 0.00 0.00 0.00 0.00 0.00 0.00 0.00 0.00 0.00 0.00 0.00 0.00 0.00 0.00 0.00 0.00 0.00 0.00 0.00 0.00 0.00 0.00 0.00 0.00 0.00 0.00 0.00 0.00 0.00 0.00
0.00 0.00 0.00 0.00 0.00 0.00 0.00 0.00 0.00 0.00 0.00 0.00 0.00 0.00 0.00 0.00 0.00 0.00 0.00 0.00 0.00 0.00 0.00 0.00 0.00 0.00 0.00 0.00 0.00 0.00 0.00 0.00 0.00 0.00 0.00 0.00 0.00 0.00 0.00 0.00 0.00 0.00 0.00
0.00 0.00 0.00 0.00 0.00 0.00 0.00 0.00 0.00 0.00 0.00 0.00 0.00 0.00 0.00 0.00 0.00 0.00 0.00 0.00 0.00 0.00 0.00 0.00 0.00 0.00 0.00 0.00 0.00 0.00 0.00 0.00 0.00 0.00 0.00 0.00 0.00 0.00 0.00 0.00 0.00 0.00 0.00
0.00 0.00 0.00 0.00 0.00 0.00 0.00 0.00 0.00 0.00 0.00 0.00 0.00 0.00 0.00 0.00 0.00 0.00 0.00 0.00 0.00 0.00 0.00 0.00 0.00 0.00 0.00 0.00 0.00 0.00 0.00 0.00 0.00 0.00 0.00 0.00 0.00 0.00 0.00 0.00 0.00 0.00 0.00
0.00 0.00 0.00 0.00 0.00 0.00 0.00 0.00 0.00 0.00 0.00 0.00 0.00 0.00 0.00 0.00 0.00 0.00 0.00 0.00 0.00 0.00 0.00 0.00 0.00 0.00 0.00 0.00 0.00 0.00 0.00 0.00 0.00 0.00 0.00 0.00 0.00 0.00 0.00 0.00 0.00 0.00 0.00
0.00 0.00 0.00 0.00 0.00 0.00 0.00 0.00 0.00 0.00 0.00 0.00 0.00 0.00 0.00 0.00 0.00 0.00 0.00 0.00 0.00 0.00 0.00 0.00 0.00 0.00 0.00 0.00 0.00 0.00 0.00 0.00 0.00 0.00 0.00 0.00 0.00 0.00 0.00 0.00 0.00 0.00 0.00
0.00 0.00 0.00 0.00 0.00 0.00 0.00 0.00 0.00 0.00 0.00 0.00 0.00 0.00 0.00 0.00 0.00 0.00 0.00 0.00 0.00 0.00 0.00 0.00 0.00 0.00 0.00 0.00 0.00 0.00 0.00 0.00 0.00 0.00 0.00 0.00 0.00 0.00 0.00 0.00 0.00 0.00 0.00
MSLP
1015.97 1015.66 1015.30 1014.88 1014.40 1013.85 1013.26 1012.66 1012.08 1011.55 1011.10 1010.72 1010.43 1010.21 1010.06 1009.95 1009.91 1009.91 1009.98 1010.13 1010.37 1010.71 1011.13 1011.65 1012.22 1012.83 1013.44 1014.04 1014.59 1015.07 1015.48 1015.81 1016.07 1016.24 1016.35 1016.41 1016.43 1016.42 1016.42 1016.45 1016.53 1016.68 1016.92
1016.15 1015.85 1015.52 1015.15 1014.72 1014.24 1013.73 1013.21 1012.70 1012.23 1011.81 1011.45 1011.15 1010.91 1010.70 1010.53 1010.40 1010.32 1010.29 1010.32 1010.45 1010.66 1010.97 1011.36 1011.83 1012.36 1012.91 1013.48 1014.03 1014.54 1015.00 1015.40 1015.74 1015.99 1016.18 1016.30 1016.37 1016.41 1016.44 1016.50 1016.60 1016.78 1017.03
1016.38 1016.13 1015.85 1015.53 1015.17 1014.76 1014.33 1013.88 1013.45 1013.04 1012.66 1012.32 1012.03 1011.76 1011.52 1011.30 1011.11 1010.95 1010.84 1010.78 1010.80 1010.90 1011.09 1011.36 1011.71 1012.12 1012.58 1013.07 1013.58 1014.07 1014.54 1014.96 1015.34 1015.66 1015.91 1016.10 1016.24 1016.35 1016.45 1016.57 1016.73 1016.96 1017.26
1016.64 1016.46 1016.24 1015.99 1015.70 1015.36 1015.00 1014.63 1014.26 1013.90 1013.56 1013.25 1012.96 1012.69 1012.43 1012.19 1011.96 1011.75 1011.58 1011.46 1011.39 1011.40 1011.48 1011.63 1011.86 1012.15 1012.49 1012.88 1013.29 1013.72 1014.15 1014.56 1014.95 1015.29 1015.59 1015.84 1016.06 1016.25 1016.43 1016.63 1016.88 1017.18 1017.54
1016.91 1016.79 1016.65 1016.46 1016.23 1015.96 1015.66 1015.35 1015.03 1014.72 1014.42 1014.13 1013.86 1013.59 1013.34 1013.09 1012.84 1012.62 1012.42 1012.25 1012.14 1012.07 1012.07 1012.12 1012.24 1012.41 1012.63 1012.90 1013.21 1013.54 1013.89 1014.26 1014.61 1014.96 1015.28 1015.57 1015.85 1016.11 1016.38 1016.67 1017.00 1017.38 1017.82
1017.14 1017.10 1017.01 1016.88 1016.71 1016.49 1016.24 1015.97 1015.70 1015.42 1015.16 1014.90 1014.65 1014.40 1014.16 1013.92 1013.69 1013.46 1013.26 1013.08 1012.94 1012.83 1012.77 1012.75 1012.78 1012.85 1012.96 1013.11 1013.31 1013.54 1013.80 1014.09 1014.39 1014.71 1015.02 1015.34 1015.65 1015.97 1016.30 1016.67 1017.07 1017.52 1018.03
1017.34 1017.35 1017.31 1017.23 1017.08 1016.90 1016.68 1016.44 1016.21 1015.97 1015.74 1015.51 1015.29 1015.07 1014.85 1014.64 1014.43 1014.22 1014.03 1013.86 1013.71 1013.59 1013.50 1013.43 1013.40 1013.39 1013.42 1013.47 1013.56 1013.70 1013.87 1014.07 1014.31 1014.58 1014.87 1015.18 1015.51 1015.85 1016.23 1016.64 1017.09 1017.59 1018.14
1017.53 1017.57 1017.55 1017.47 1017.35 1017.18 1016.98 1016.77 1016.55 1016.35 1016.15 1015.96 1015.77 1015.59 1015.41 1015.22 1015.04 1014.86 1014.69 1014.54 1014.40 1014.28 1014.18 1014.09 1014.02 1013.97 1013.93 1013.92 1013.94 1013.99 1014.08 1014.22 1014.39 1014.61 1014.86 1015.14 1015.46 1015.80 1016.19 1016.61 1017.07 1017.59 1018.15
1017.71 1017.75 1017.73 1017.66 1017.53 1017.36 1017.17 1016.98 1016.79 1016.62 1016.45 1016.30 1016.16 1016.01 1015.86 1015.71 1015.55 1015.40 1015.25 1015.11 1014.99 1014.87 1014.77 1014.68 1014.60 1014.52 1014.46 1014.41 1014.39 1014.39 1014.43 1014.51 1014.63 1014.80 1015.01 1015.26 1015.55 1015.87 1016.23 1016.63 1017.07 1017.57 1018.10
1017.90 1017.93 1017.90 1017.80 1017.67 1017.50 1017.32 1017.15 1016.99 1016.85 1016.72 1016.61 1016.51 1016.39 1016.27 1016.15 1016.01 1015.87 1015.73 1015.60 1015.48 1015.37 1015.27 1015.19 1015.10 1015.03 1014.96 1014.90 1014.86 1014.84 1014.86 1014.92 1015.02 1015.16 1015.33 1015.55 1015.80 1016.08 1016.40 1016.75 1017.15 1017.59 1018.07
1018.08 1018.09 1018.05 1017.94 1017.80 1017.64 1017.48 1017.33 1017.21 1017.11 1017.03 1016.96 1016.89 1016.81 1016.71 1016.60 1016.47 1016.33 1016.19 1016.06 1015.93 1015.81 1015.71 1015.62 1015.54 1015.47 1015.41 1015.36 1015.34 1015.33 1015.35 1015.41 1015.51 1015.63 1015.80 1015.99 1016.20 1016.44 1016.71 1017.00 1017.33 1017.70 1018.12
1018.22 1018.23 1018.18 1018.08 1017.95 1017.81 1017.68 1017.58 1017.49 1017.44 1017.41 1017.38 1017.34 1017.29 1017.21 1017.10 1016.97 1016.82 1016.67 1016.51 1016.36 1016.23 1016.11 1016.02 1015.94 1015.87 1015.83 1015.80 1015.79 1015.82 1015.87 1015.95 1016.06 1016.19 1016.36 1016.54 1016.73 1016.94 1017.15 1017.39 1017.65 1017.95 1018.29
1018.28 1018.30 1018.27 1018.19 1018.10 1018.00 1017.92 1017.86 1017.83 1017.83 1017.84 1017.86 1017.85 1017.82 1017.76 1017.65 1017.51 1017.35 1017.17 1016.98 1016.81 1016.65 1016.51 1016.40 1016.31 1016.25 1016.21 1016.20 1016.23 1016.28 1016.36 1016.47 1016.61 1016.77 1016.95 1017.14 1017.32 1017.51 1017.69 1017.88 1018.09 1018.32 1018.59
1018.22 1018.27 1018.27 1018.24 1018.20 1018.16 1018.14 1018.14 1018.17 1018.23 1018.29 1018.34 1018.37 1018.36 1018.30 1018.20 1018.06 1017.88 1017.68 1017.47 1017.27 1017.08 1016.92 1016.79 1016.68 1016.61 1016.58 1016.58 1016.62 1016.70 1016.81 1016.95 1017.12 1017.31 1017.51 1017.72 1017.91 1018.09 1018.26 1018.42 1018.59 1018.77 1018.98
1018.01 1018.10 1018.15 1018.18 1018.20 1018.23 1018.27 1018.34 1018.43 1018.54 1018.64 1018.73 1018.79 1018.80 1018.76 1018.67 1018.54 1018.36 1018.15 1017.93 1017.72 1017.51 1017.33 1017.18 1017.06 1016.98 1016.94 1016.94 1016.98 1017.06 1017.19 1017.35 1017.55 1017.76 1017.99 1018.21 1018.42 1018.61 1018.78 1018.93 1019.08 1019.24 1019.41
1017.66 1017.79 1017.89 1017.97 1018.06 1018.14 1018.25 1018.38 1018.51 1018.66 1018.81 1018.93 1019.02 1019.06 1019.04 1018.98 1018.87 1018.71 1018.52 1018.32 1018.11 1017.92 1017.73 1017.57 1017.44 1017.35 1017.29 1017.27 1017.30 1017.38 1017.50 1017.67 1017.87 1018.10 1018.33 1018.57 1018.80 1019.00 1019.19 1019.35 1019.50 1019.66 1019.82
1017.21 1017.36 1017.50 1017.63 1017.76 1017.89 1018.04 1018.20 1018.38 1018.55 1018.72 1018.87 1018.98 1019.05 1019.08 1019.05 1018.98 1018.88 1018.74 1018.58 1018.41 1018.24 1018.08 1017.93 1017.80 1017.70 1017.62 1017.59 1017.60 1017.65 1017.76 1017.91 1018.09 1018.31 1018.55 1018.79 1019.03 1019.25 1019.45 1019.64 1019.81 1019.97 1020.15
1016.72 1016.89 1017.04 1017.19 1017.33 1017.48 1017.65 1017.82 1018.00 1018.19 1018.36 1018.53 1018.66 1018.77 1018.83 1018.86 1018.86 1018.82 1018.75 1018.67 1018.56 1018.45 1018.34 1018.22 1018.11 1018.01 1017.93 1017.88 1017.87 1017.89 1017.96 1018.08 1018.24 1018.44 1018.66 1018.89 1019.13 1019.36 1019.58 1019.78 1019.98 1020.17 1020.36
1016.26 1016.41 1016.55 1016.69 1016.83 1016.97 1017.12 1017.28 1017.44 1017.61 1017.78 1017.94 1018.09 1018.22 1018.34 1018.42 1018.49 1018.54 1018.56 1018.56 1018.55 1018.52 1018.47 1018.41 1018.34 1018.27 1018.20 1018.14 1018.11 1018.11 1018.15 1018.22 1018.35 1018.51 1018.70 1018.91 1019.14 1019.37 1019.59 1019.81 1020.03 1020.24 1020.46
1015.85 1015.97 1016.09 1016.20 1016.31 1016.41 1016.53 1016.65 1016.77 1016.91 1017.05 1017.20 1017.35 1017.50 1017.65 1017.79 1017.93 1018.06 1018.17 1018.27 1018.36 1018.42 1018.45 1018.47 1018.45 1018.43 1018.38 1018.34 1018.31 1018.29 1018.31 1018.35 1018.44 1018.56 1018.71 1018.90 1019.10 1019.32 1019.54 1019.77 1020.00 1020.23 1020.46
1015.49 1015.60 1015.68 1015.76 1015.82 1015.89 1015.95 1016.02 1016.09 1016.18 1016.28 1016.40 1016.54 1016.69 1016.86 1017.04 1017.24 1017.43 1017.63 1017.82 1017.99 1018.15 1018.27 1018.36 1018.43 1018.46 1018.47 1018.46 1018.44 1018.43 1018.44 1018.47 1018.53 1018.62 1018.74 1018.89 1019.07 1019.26 1019.47 1019.69 1019.92 1020.16 1020.40
1015.17 1015.26 1015.33 1015.38 1015.41 1015.42 1015.44 1015.45 1015.47 1015.51 1015.57 1015.65 1015.76 1015.90 1016.07 1016.27 1016.49 1016.73 1016.99 1017.24 1017.49 1017.72 1017.92 1018.09 1018.23 1018.34 1018.41 1018.46 1018.49 1018.51 1018.53 1018.57 1018.62 1018.69 1018.78 1018.91 1019.05 1019.22 1019.41 1019.61 1019.83 1020.06 1020.30
1014.82 1014.93 1015.00 1015.04 1015.05 1015.04 1015.01 1014.98 1014.96 1014.95 1014.96 1015.00 1015.08 1015.19 1015.34 1015.53 1015.76 1016.01 1016.29 1016.57 1016.86 1017.15 1017.41 1017.66 1017.87 1018.05 1018.20 1018.32 1018.41 1018.49 1018.55 1018.61 1018.67 1018.75 1018.83 1018.93 1019.05 1019.19 1019.35 1019.54 1019.73 1019.95 1020.17
1014.38 1014.52 1014.62 1014.68 1014.70 1014.68 1014.65 1014.60 1014.55 1014.51 1014.48 1014.48 1014.52 1014.60 1014.72 1014.87 1015.07 1015.31 1015.58 1015.86 1016.17 1016.47 1016.78 1017.07 1017.35 1017.60 1017.83 1018.02 1018.19 1018.34 1018.47 1018.57 1018.67 1018.76 1018.85 1018.94 1019.05 1019.16 1019.30 1019.45 1019.62 1019.80 1020.00
1013.80 1014.00 1014.15 1014.25 1014.30 1014.31 1014.28 1014.24 1014.18 1014.13 1014.09 1014.07 1014.07 1014.11 1014.19 1014.30 1014.46 1014.65 1014.88 1015.14 1015.43 1015.73 1016.05 1016.38 1016.70 1017.01 1017.31 1017.58 1017.83 1018.06 1018.26 1018.42 1018.57 1018.69 1018.80 1018.90 1018.99 1019.09 1019.20 1019.32 1019.46 1019.62 1019.79
1013.09 1013.35 1013.55 1013.70 1013.80 1013.85 1013.86 1013.84 1013.80 1013.76 1013.72 1013.69 1013.67 1013.69 1013.72 1013.79 1013.90 1014.04 1014.22 1014.43 1014.68 1014.97 1015.28 1015.61 1015.96 1016.31 1016.67 1017.01 1017.34 1017.64 1017.91 1018.15 1018.35 1018.51 1018.65 1018.76 1018.86 1018.95 1019.04 1019.14 1019.25 1019.38 1019.52
Thickness
5647 5647 5647 5649 5650 5652 5653 5656 5659 5662 5666 5669 5672 5676 5679 5681 5684 5686 5687 5689 5690 5691 5692 5692 5693 5694 5692 5692 5692 5692 5691 5690 5686 5688 5692 5694 5695 5696 5696 5696 5696 5695 5693
5646 5646 5646 5647 5648 5649 5650 5653 5656 5658 5660 5663 5666 5668 5671 5673 5676 5678 5679 5681 5682 5683 5684 5686 5687 5687 5686 5686 5685 5685 5685 5685 5683 5681 5683 5685 5686 5688 5688 5688 5688 5687 5685
5646 5645 5645 5645 5645 5646 5647 5649 5651 5653 5655 5657 5660 5661 5663 5665 5667 5668 5671 5673 5675 5677 5678 5678 5679 5679 5678 5678 5679 5679 5679 5680 5679 5677 5676 5677 5678 5680 5679 5680 5680 5679 5677
5647 5645 5644 5643 5643 5643 5643 5645 5646 5648 5649 5651 5652 5654 5655 5656 5658 5660 5663 5666 5668 5669 5671 5671 5671 5672 5672 5672 5673 5673 5674 5673 5672 5671 5669 5670 5670 5672 5671 5670 5669 5670 5669
5647 5645 5643 5643 5642 5641 5641 5641 5641 5643 5644 5645 5646 5647 5647 5649 5650 5652 5654 5658 5659 5661 5662 5664 5665 5666 5667 5668 5668 5667 5667 5666 5664 5663 5662 5662 5662 5662 5662 5664 5662 5661 5660
5648 5645 5644 5642 5640 5639 5638 5638 5638 5638 5639 5640 5640 5640 5640 5641 5643 5645 5648 5650 5652 5653 5654 5655 5657 5659 5659 5660 5661 5662 5662 5661 5658 5658 5657 5656 5656 5657 5658 5658 5655 5653 5649
5650 5647 5644 5642 5639 5637 5636 5636 5635 5634 5634 5634 5634 5634 5634 5634 5637 5639 5641 5643 5645 5646 5647 5648 5650 5651 5652 5652 5653 5654 5655 5656 5657 5656 5653 5651 5652 5653 5653 5652 5650 5648 5645
5651 5648 5645 5641 5638 5636 5635 5633 5632 5631 5630 5630 5629 5629 5629 5629 5631 5633 5635 5637 5638 5639 5640 5641 5643 5643 5645 5646 5646 5645 5646 5647 5650 5651 5650 5649 5650 5651 5651 5650 5648 5644 5641
5652 5649 5646 5642 5639 5636 5634 5632 5630 5629 5628 5627 5626 5625 5624 5623 5625 5627 5630 5631 5632 5632 5633 5634 5636 5637 5639 5640 5641 5639 5638 5639 5642 5644 5644 5644 5646 5647 5647 5645 5642 5638 5634
5654 5650 5647 5644 5640 5637 5635 5632 5631 5629 5627 5626 5624 5623 5621 5619 5620 5622 5625 5626 5626 5626 5627 5628 5629 5631 5634 5636 5636 5635 5633 5633 5636 5637 5638 5639 5640 5641 5641 5641 5639 5635 5632
5657 5653 5649 5646 5643 5639 5637 5634 5632 5630 5628 5626 5623 5621 5619 5617 5617 5618 5619 5620 5620 5621 5621 5621 5622 5627 5630 5632 5632 5631 5631 5633 5633 5633 5633 5633 5634 5635 5636 5637 5637 5635 5631
5660 5656 5652 5649 5646 5643 5639 5636 5634 5631 5628 5626 5623 5620 5618 5616 5615 5615 5616 5616 5617 5617 5616 5617 5618 5622 5626 5628 5628 5629 5630 5631 5630 5629 5627 5626 5627 5628 5629 5631 5632 5632 5631
5663 5659 5656 5653 5649 5645 5641 5637 5634 5631 5628 5625 5623 5620 5617 5615 5614 5613 5614 5614 5614 5613 5613 5614 5617 5620 5622 5624 5625 5626 5627 5627 5626 5624 5622 5622 5623 5624 5625 5626 5626 5626 5626
5667 5663 5660 5656 5651 5647 5642 5638 5634 5630 5627 5625 5623 5620 5618 5615 5612 5611 5612 5612 5612 5612 5613 5614 5616 5618 5620 5621 5622 5623 5624 5623 5623 5621 5621 5621 5622 5622 5621 5622 5621 5620 5618
5673 5668 5664 5659 5654 5649 5644 5638 5635 5630 5627 5625 5622 5621 5618 5615 5612 5611 5612 5612 5612 5612 5614 5616 5617 5617 5617 5618 5619 5620 5621 5622 5621 5621 5620 5619 5619 5619 5619 5620 5619 5618 5614
5676 5672 5667 5663 5658 5654 5649 5642 5637 5635 5631 5629 5626 5623 5621 5618 5617 5616 5616 5616 5616 5617 5618 5617 5617 5617 5617 5617 5617 5618 5619 5619 5620 5620 5619 5618 5618 5618 5618 5619 5618 5616 5613
5679 5675 5671 5667 5663 5659 5655 5650 5644 5638 5635 5632 5630 5628 5625 5623 5622 5621 5621 5620 5621 5621 5620 5619 5619 5618 5618 5618 5618 5617 5617 5618 5619 5619 5618 5618 5618 5618 5617 5617 5616 5615 5612
5682 5678 5674 5670 5667 5664 5661 5658 5654 5649 5643 5639 5635 5633 5630 5629 5627 5626 5625 5624 5624 5625 5623 5622 5621 5621 5620 5620 5619 5619 5618 5618 5619 5618 5618 5618 5618 5618 5617 5616 5615 5613 5612
5685 5681 5678 5675 5671 5669 5666 5663 5660 5657 5653 5649 5643 5638 5636 5634 5632 5631 5630 5628 5629 5628 5626 5625 5624 5623 5623 5622 5621 5621 5620 5619 5619 5619 5618 5618 5618 5618 5617 5616 5614 5613 5612
5686 5683 5679 5676 5674 5672 5669 5667 5664 5661 5659 5656 5651 5647 5642 5638 5637 5636 5634 5634 5633 5632 5630 5628 5627 5626 5625 5624 5623 5622 5622 5621 5620 5620 5619 5619 5619 5618 5617 5616 5615 5613 5612
5688 5684 5681 5677 5675 5674 5673 5671 5669 5666 5663 5661 5658 5655 5650 5646 5645 5643 5641 5639 5638 5636 5635 5632 5631 5629 5628 5626 5625 5625 5624 5623 5622 5621 5620 5620 5619 5618 5618 5617 5616 5614 5612
5690 5687 5683 5680 5678 5676 5676 5675 5673 5671 5668 5665 5661 5657 5655 5652 5650 5649 5647 5645 5643 5641 5640 5637 5634 5633 5631 5629 5628 5627 5626 5626 5625 5623 5622 5621 5620 5619 5618 5617 5615 5614 5612
5690 5687 5685 5683 5681 5680 5677 5675 5674 5672 5671 5670 5667 5662 5658 5656 5654 5653 5652 5650 5648 5645 5643 5640 5638 5636 5634 5633 5631 5630 5628 5627 5627 5625 5623 5622 5620 5619 5617 5616 5615 5613 5611
5688 5686 5685 5684 5682 5680 5678 5676 5675 5675 5674 5672 5671 5668 5664 5661 5660 5658 5656 5654 5651 5648 5646 5643 5640 5639 5637 5635 5633 5631 5629 5628 5627 5626 5624 5622 5620 5619 5617 5616 5614 5613 5610
5687 5685 5684 5683 5681 5680 5679 5677 5676 5676 5675 5674 5672 5671 5669 5667 5664 5662 5659 5657 5654 5651 5648 5646 5643 5641 5639 5636 5634 5632 5629 5628 5626 5624 5623 5621 5619 5618 5616 5615 5613 5612 5609
5685 5683 5682 5681 5679 5678 5678 5677 5676 5675 5675 5674 5673 5672 5670 5668 5666 5664 5661 5659 5655 5653 5650 5648 5645 5643 5640 5638 5635 5633 5630 5627 5625 5623 5621 5619 5617 5616 5615 5613 5612 5610 5608